Flag for India Weather past 2 weeks in Balurghat, West Bengal, India

Now
81 °F

Broken clouds.


Feels Like: 83 °F
Forecast: 71 / 84 °F
Wind: 2 mph from East

Location: Varanasi / Babatpur

Current Time: Oct 25, 2014 at 12:33:42 PM

Latest Report: Oct 25, 2014 at 11:00 AM


Visibility: 2 mi

Pressure: 29.95 "Hg

Humidity: 66%

Dew point: 68 °F

Location of BalurghatLocation

Historic Weather in Balurghat — Graph

°F

Balurghat temperature yesterday

Maximum temperature yesterday: 88 °F (at 3:00 PM)
Minimum temperature yesterday: 68 °F (at 4:00 AM)
Average temperature yesterday: 78 °F

Past Weeks' High & Low Weather Summary

 TemperatureHumidityPressure
High95 °F (Oct 11, 2:00 PM)100% (Oct 12, 6:00 AM)30.07 "Hg (Oct 12, 6:00 AM)
Low66 °F (Oct 20, 5:00 AM)46% (Oct 19, 12:00 PM)29.62 "Hg (Oct 14, 5:00 AM)
Average79 °F76%29.89 "Hg
* Reported Oct 10 11:00 AM — Oct 25 11:00 AM, Balurghat, Weather by CustomWeather, © 2014

Note: Actual official high and low records may vary slightly from our data, if they occured in-between our weather recording intervals... More about our weather records

Advertising

Balurghat weather history for previous 24 hours

 ConditionsComfort  
Time TempWeatherWind HumidityBarometerVisibility
11:00 AM
Oct 25
81 °FBroken clouds.2 mph66%29.95 "Hg2 mi
10:00 AM79 °FScattered clouds.No wind74%29.95 "Hg1 mi
9:00 AM75 °FScattered clouds.No wind83%29.98 "Hg1 mi
8:00 AM73 °FFog.No wind83%29.95 "Hg1 mi
7:00 AM72 °FFog.No wind88%29.92 "Hg1 mi
6:00 AM72 °FFog.No wind88%29.89 "Hg1 mi
4:00 AM70 °FFog.No wind88%29.89 "Hg1 mi
12:00 AM82 °FHaze.No wind58%29.89 "Hg2 mi
11:00 PM
Oct 24
75 °FHaze.No wind74%29.89 "Hg2 mi
7:00 PM77 °FHaze.No wind65%29.89 "Hg2 mi
6:00 PM77 °FHaze.No wind69%29.86 "Hg2 mi
5:00 PM81 °FHaze.No wind58%29.86 "Hg2 mi
4:00 PM86 °FHaze.No wind49%29.86 "Hg3 mi
3:00 PM88 °FHaze.No wind46%29.86 "Hg3 mi
2:00 PM86 °FHaze.No wind52%29.86 "Hg3 mi
1:00 PM86 °FHaze.No wind52%29.89 "Hg3 mi
12:00 PM84 °FHaze.2 mph58%29.92 "Hg2 mi
Weather by CustomWeather, © 2014

See weather overviewHow to use our weather pages